Munising, MI

4:25 AM EST on November 18, 2017 (GMT -0500)
Munising

Weather History for KP53 - November, 2013

Change the Weather History Date:

Thursday, November 7, 2013

  Actual Average (KISQ) Record (KISQ)
Temperature  
Mean Temperature 36 °F -  
Max Temperature 37 °F 43 °F 60 °F (1949)
Min Temperature 35 °F 27 °F 5 °F (1991)
Degree Days  
Heating Degree Days 29    
Moisture  
Dew Point 29 °F    
Average Humidity 76    
Maximum Humidity 89    
Minimum Humidity 62    
Precipitation  
Precipitation 0.35 in - - ()
Sea Level Pressure  
Sea Level Pressure 30.04 in    
Wind  
Wind Speed 8 mph (West)    
Max Wind Speed 14 mph    
Max Gust Speed 22 mph    
Averages and records for this station are not official NWS values.
T = Trace of Precipitation, MM = Missing Value Source: NWS Daily Summary

Daily Weather History Graph

Daily Weather History Graph

Search for Another Location

Airport or City:

Trip Planner

Search our weather history database for the weather conditions in past years. The results will help you decide how hot, cold, wet, or windy it might be!

Date:

Astronomy

Nov. 07, 2013 Rise Set
Actual Time 7:37 AM EST 5:22 PM EST
Civil Twilight 7:05 AM EST 5:54 PM EST
Nautical Twilight 6:29 AM EST 6:30 PM EST
Astronomical Twilight 5:53 AM EST 7:06 PM EST
Moon 11:48 AM EST (11/7) 9:31 PM EST (11/7)
Length of Visible Light 10h 49m
Length of Day
9h 45m
Waxing Crescent, 22% of the Moon is Illuminated
Nov 7
Waxing Crescent
Nov 10
First Quarter
Nov 17
Full
Nov 25
Last Quarter
Dec 2
New

Hourly Weather History & Observations

Time (EST) Temp. Windchill Dew Point Humidity Pressure Visibility Wind Dir Wind Speed Gust Speed Precip Events Conditions
12:56 AM 36.0 °F 30.3 °F 26.1 °F 67% 29.99 in - WSW 6.9 mph - N/A   Unknown
1:56 AM 37.0 °F 29.8 °F 25.0 °F 62% 30.00 in - West 10.4 mph 18.4 mph N/A   Unknown
2:56 AM 36.0 °F 29.6 °F 25.0 °F 64% 30.00 in - West 8.1 mph - N/A   Unknown
3:56 AM 36.0 °F 30.3 °F 25.0 °F 64% 30.00 in - Variable 6.9 mph 18.4 mph N/A   Unknown
4:56 AM 35.1 °F 29.3 °F 26.1 °F 70% 30.01 in - SW 6.9 mph - N/A   Unknown
5:56 AM 35.1 °F 28.6 °F 26.1 °F 70% 30.01 in - West 8.1 mph - N/A   Unknown
6:56 AM 35.1 °F 30.1 °F 27.0 °F 72% 30.02 in - West 5.8 mph - 0.01 in   Unknown
7:56 AM 35.1 °F 30.1 °F 27.0 °F 72% 30.03 in - WSW 5.8 mph - N/A   Unknown
8:56 AM 35.1 °F 28.6 °F 28.0 °F 76% 30.04 in - WSW 8.1 mph - N/A   Unknown
9:56 AM 36.0 °F 30.3 °F 28.0 °F 73% 30.05 in - WSW 6.9 mph - N/A   Unknown
10:56 AM 36.0 °F 29.6 °F 30.9 °F 82% 30.05 in - SW 8.1 mph - 0.01 in   Unknown
11:56 AM 37.9 °F 32.7 °F 28.0 °F 68% 30.05 in - West 6.9 mph - N/A   Unknown
12:56 PM 36.0 °F 33.3 °F 30.0 °F 79% 30.04 in - Variable 3.5 mph - N/A   Unknown
1:56 PM 35.1 °F 29.3 °F 30.9 °F 85% 30.05 in - Variable 6.9 mph - 0.02 in   Unknown
2:56 PM 37.0 °F 29.3 °F 32.0 °F 82% 30.04 in - WNW 11.5 mph 16.1 mph 0.04 in   Unknown
3:56 PM 35.1 °F 27.4 °F 32.0 °F 89% 30.05 in - NW 10.4 mph - 0.05 in   Unknown
4:56 PM 35.1 °F 25.9 °F 32.0 °F 89% 30.06 in - NW 13.8 mph 21.9 mph 0.09 in   Unknown
5:56 PM 35.1 °F 28.6 °F 30.0 °F 82% 30.07 in - WNW 8.1 mph - 0.04 in   Unknown
6:56 PM 35.1 °F 27.4 °F 30.0 °F 82% 30.07 in - West 10.4 mph 19.6 mph 0.02 in   Unknown
7:56 PM 35.1 °F 29.3 °F 30.0 °F 82% 30.08 in - West 6.9 mph - 0.01 in   Unknown
8:56 PM 35.1 °F 31.0 °F 30.0 °F 82% 30.08 in - SW 4.6 mph - N/A   Unknown
9:56 PM 35.1 °F 32.2 °F 30.0 °F 82% 30.09 in - WNW 3.5 mph - 0.05 in   Unknown
10:56 PM 36.0 °F 29.0 °F 30.0 °F 79% 30.08 in - West 9.2 mph - 0.01 in   Unknown
11:56 PM 35.1 °F 31.0 °F 28.9 °F 78% 30.09 in - WSW 4.6 mph - N/A   Unknown